TimeCDT,TemperatureF,Dew PointF,Humidity,Sea Level PressureIn,VisibilityMPH,Wind Direction,Wind SpeedMPH,Gust SpeedMPH,PrecipitationIn,Events,Conditions,WindDirDegrees,DateUTC
12:53 AM,63.0,59.0,87,30.18,10.0,Calm,Calm,-,N/A,,Clear,0,2012-10-05 05:53:00
1:53 AM,61.0,57.9,90,30.17,10.0,Calm,Calm,-,N/A,,Clear,0,2012-10-05 06:53:00
2:53 AM,62.6,60.8,94,30.16,10.0,Calm,Calm,-,N/A,,Clear,0,2012-10-05 07:53:00
3:53 AM,61.0,57.9,90,30.15,7.0,Calm,Calm,-,N/A,,Clear,0,2012-10-05 08:53:00
4:31 AM,59.0,55.4,88,30.17,2.5,Calm,Calm,-,N/A,,Clear,0,2012-10-05 09:31:00
4:46 AM,60.8,57.2,88,30.17,6.0,Calm,Calm,-,N/A,,Clear,0,2012-10-05 09:46:00
4:53 AM,60.1,57.9,93,30.16,9.0,Calm,Calm,-,N/A,,Clear,0,2012-10-05 09:53:00
5:53 AM,59.0,57.0,93,30.17,6.0,Calm,Calm,-,N/A,,Clear,0,2012-10-05 10:53:00
6:18 AM,59.0,57.2,94,30.18,1.8,Calm,Calm,-,N/A,,Clear,0,2012-10-05 11:18:00
6:30 AM,59.0,57.2,94,30.18,6.0,Calm,Calm,-,N/A,,Clear,0,2012-10-05 11:30:00
6:53 AM,59.0,57.0,93,30.17,6.0,North,3.5,-,N/A,,Clear,360,2012-10-05 11:53:00
7:53 AM,64.0,59.0,84,30.18,8.0,Calm,Calm,-,N/A,,Clear,0,2012-10-05 12:53:00
8:53 AM,69.1,61.0,75,30.18,10.0,ENE,4.6,-,N/A,,Clear,60,2012-10-05 13:53:00
9:53 AM,73.4,62.6,69,30.17,10.0,East,6.9,-,N/A,,Clear,80,2012-10-05 14:53:00
10:53 AM,80.6,62.6,54,30.15,10.0,Calm,Calm,-,N/A,,Clear,0,2012-10-05 15:53:00
11:53 AM,84.0,61.0,46,30.14,10.0,ESE,6.9,-,N/A,,Clear,120,2012-10-05 16:53:00
12:53 PM,82.9,57.9,42,30.11,10.0,Variable,3.5,-,N/A,,Clear,0,2012-10-05 17:53:00
1:53 PM,84.9,59.0,41,30.07,10.0,Calm,Calm,-,N/A,,Clear,0,2012-10-05 18:53:00
2:53 PM,84.9,60.1,43,30.04,10.0,Calm,Calm,-,N/A,,Partly Cloudy,0,2012-10-05 19:53:00
3:53 PM,84.9,60.1,43,30.02,10.0,Calm,Calm,-,N/A,,Clear,0,2012-10-05 20:53:00
4:53 PM,84.9,60.1,43,30.01,10.0,Calm,Calm,-,N/A,,Clear,0,2012-10-05 21:53:00
5:53 PM,82.0,62.1,51,30.01,10.0,West,3.5,-,N/A,,Clear,270,2012-10-05 22:53:00
6:53 PM,75.0,64.0,69,30.01,10.0,Calm,Calm,-,N/A,,Clear,0,2012-10-05 23:53:00
7:53 PM,70.0,64.0,81,30.02,10.0,Calm,Calm,-,N/A,,Clear,0,2012-10-06 00:53:00
8:53 PM,72.0,63.0,73,30.02,10.0,Calm,Calm,-,N/A,,Clear,0,2012-10-06 01:53:00
9:53 PM,66.9,63.0,87,30.03,10.0,Calm,Calm,-,N/A,,Partly Cloudy,0,2012-10-06 02:53:00
10:53 PM,69.1,64.0,84,30.04,10.0,Calm,Calm,-,N/A,,Mostly Cloudy,0,2012-10-06 03:53:00
11:53 PM,66.0,63.0,90,30.04,9.0,East,3.5,-,N/A,,Clear,100,2012-10-06 04:53:00